Weather History for Lowell, ID

Change the Weather History Date:

Wednesday, December 25, 2013

  Actual Average Record
Temperature  
Mean Temperature 34 °F -  
Max Temperature 41 °F 35 °F 41 °F (2002)
Min Temperature 28 °F 26 °F 16 °F (2001)
Degree Days  
Heating Degree Days 30    
Moisture  
Dew Point 27 °F    
Average Humidity 86    
Maximum Humidity 96    
Minimum Humidity 60    
Precipitation  
Precipitation 0.00 in - - ()
Sea Level Pressure  
Sea Level Pressure 30.63 in    
Wind  
Wind Speed 2 mph (North)    
Max Wind Speed 5 mph    
Max Gust Speed -    
Averages and records for this station are not official NWS values.
T = Trace of Precipitation, MM = Missing Value Source: NWS Daily Summary

Daily Weather History Graph

Daily Weather History Graph

Search for Another Location

Airport:

Trip Planner

Search our weather history database for the weather conditions in past years. The results will help you decide how hot, cold, wet, or windy it might be!

Date:

Astronomy

Dec. 25, 2013 Rise Set
Actual Time 8:23 AM MST 5:01 PM MST
Civil Twilight 7:48 AM MST 5:36 PM MST
Nautical Twilight 7:10 AM MST 6:14 PM MST
Astronomical Twilight 6:34 AM MST 6:51 PM MST
Moon 12:37 AM MST (12/25) 12:24 PM MST (12/25)
Length of Visible Light 9h 47m
Length of Day
8h 38m
Waning Gibbous, 48% of the Moon is Illuminated
Dec 25
Waning Gibbous
Jan 1
New
Jan 7
First Quarter
Jan 15
Full
Jan 23
Last Quarter

Hourly Weather History & Observations

Time (MST) Temp. Windchill Dew Point Humidity Pressure Visibility Wind Dir Wind Speed Gust Speed Precip Events Conditions
12:52 AM 30.9 °F - 28.9 °F 92% 30.69 in - Calm Calm - N/A   Unknown
1:52 AM 30.9 °F - 28.9 °F 92% 30.68 in - Calm Calm - N/A   Unknown
2:52 AM 30.9 °F 27.5 °F 28.0 °F 89% 30.69 in - NNW 3.5 mph - N/A   Unknown
3:52 AM 30.0 °F - 28.0 °F 92% 30.71 in - Calm Calm - N/A   Unknown
4:52 AM 28.9 °F - 28.0 °F 96% 30.71 in - Calm Calm - N/A   Unknown
5:52 AM 28.9 °F 25.2 °F 27.0 °F 92% 30.70 in - NNW 3.5 mph - N/A   Unknown
6:52 AM 28.0 °F - 27.0 °F 96% 30.70 in - Calm Calm - N/A   Unknown
7:52 AM 28.0 °F - 26.1 °F 92% 30.70 in - Calm Calm - N/A   Unknown
8:52 AM 28.0 °F - 26.1 °F 92% 30.70 in - Calm Calm - N/A   Unknown
9:52 AM 28.0 °F 24.2 °F 24.1 °F 85% 30.69 in - Variable 3.5 mph - N/A   Unknown
10:52 AM 33.1 °F 30.0 °F 25.0 °F 72% 30.68 in - North 3.5 mph - N/A   Unknown
11:52 AM 32.0 °F 28.7 °F 26.1 °F 79% 30.65 in - North 3.5 mph - N/A   Unknown
12:52 PM 35.1 °F 31.0 °F 27.0 °F 72% 30.61 in - North 4.6 mph - N/A   Unknown
1:52 PM 41.0 °F 39.0 °F 28.0 °F 60% 30.56 in - North 3.5 mph - N/A   Unknown
2:52 PM 37.0 °F 33.3 °F 28.0 °F 70% 30.57 in - NNW 4.6 mph - N/A   Unknown
3:52 PM 30.9 °F - 28.0 °F 89% 30.54 in - Calm Calm - N/A   Unknown
4:52 PM 30.9 °F - 28.0 °F 89% 30.56 in - Calm Calm - N/A   Unknown
5:52 PM 30.0 °F 26.5 °F 28.0 °F 92% 30.57 in - North 3.5 mph - N/A   Unknown
6:52 PM 30.9 °F 27.5 °F 28.0 °F 89% 30.58 in - North 3.5 mph - N/A   Unknown
7:52 PM 30.9 °F - 28.0 °F 89% 30.59 in - Calm Calm - N/A   Unknown
8:52 PM 30.9 °F 27.5 °F 28.0 °F 89% 30.59 in - North 3.5 mph - N/A   Unknown
9:52 PM 30.9 °F 26.2 °F 28.0 °F 89% 30.59 in - NW 4.6 mph - N/A   Unknown
10:52 PM 30.9 °F 27.5 °F 28.0 °F 89% 30.56 in - NNW 3.5 mph - N/A   Unknown
11:52 PM 30.9 °F 26.2 °F 28.0 °F 89% 30.56 in - North 4.6 mph - N/A   Unknown